owner,sensor,date,latitude,longitude,vertical_datum,wind_speed,wind_to_direction,wind_speed_of_gust,qcFlag 
DISL,ioos:station:DISL:DISL:1,2015-05-01T00:00:00Z,30.2513,-88.0778,9.68,2.4,253.0,-9999.0,'1111122,1111122,1111122' 
DISL,ioos:station:DISL:DISL:1,2015-05-01T00:30:00Z,30.2513,-88.0778,9.68,3.14,256.8,-9999.0,'1111122,1111122,1111122' 
DISL,ioos:station:DISL:DISL:1,2015-05-01T01:00:00Z,30.2513,-88.0778,9.68,2.17,253.7,-9999.0,'1111122,1111122,1111122' 
DISL,ioos:station:DISL:DISL:1,2015-05-01T01:30:00Z,30.2513,-88.0778,9.68,1.21,236.8,-9999.0,'1111122,1111122,1111122' 
DISL,ioos:station:DISL:DISL:1,2015-05-01T02:00:00Z,30.2513,-88.0778,9.68,0.98,238.9,-9999.0,'1111122,1111122,1111122' 
DISL,ioos:station:DISL:DISL:1,2015-05-01T02:30:00Z,30.2513,-88.0778,9.68,0.82,239.8,-9999.0,'1111122,1111122,1111122' 
DISL,ioos:station:DISL:DISL:1,2015-05-01T03:00:00Z,30.2513,-88.0778,9.68,0.53,254.4,-9999.0,'1111122,1111122,1111122' 
DISL,ioos:station:DISL:DISL:1,2015-05-01T03:30:00Z,30.2513,-88.0778,9.68,0.17,258.0,-9999.0,'1111122,1111122,1111122' 
DISL,ioos:station:DISL:DISL:1,2015-05-01T04:00:00Z,30.2513,-88.0778,9.68,0.48,262.8,-9999.0,'1111122,1111122,1111122' 
DISL,ioos:station:DISL:DISL:1,2015-05-01T04:30:00Z,30.2513,-88.0778,9.68,1.88,268.2,-9999.0,'1111122,1111122,1111122' 
DISL,ioos:station:DISL:DISL:1,2015-05-01T05:00:00Z,30.2513,-88.0778,9.68,1.28,261.5,-9999.0,'1111122,1111122,1111122' 
DISL,ioos:station:DISL:DISL:1,2015-05-01T05:30:00Z,30.2513,-88.0778,9.68,0.72,269.8,-9999.0,'1111122,1111122,1111122' 
DISL,ioos:station:DISL:DISL:1,2015-05-01T06:00:00Z,30.2513,-88.0778,9.68,1.15,282.3,-9999.0,'1111122,1111122,1111122' 
DISL,ioos:station:DISL:DISL:1,2015-05-01T06:30:00Z,30.2513,-88.0778,9.68,1.53,278.1,-9999.0,'1111122,1111122,1111122' 
DISL,ioos:station:DISL:DISL:1,2015-05-01T07:00:00Z,30.2513,-88.0778,9.68,1.72,283.4,-9999.0,'1111122,1111122,1111122' 
DISL,ioos:station:DISL:DISL:1,2015-05-01T07:30:00Z,30.2513,-88.0778,9.68,2.01,286.7,-9999.0,'1111122,1111122,1111122' 
DISL,ioos:station:DISL:DISL:1,2015-05-01T08:00:00Z,30.2513,-88.0778,9.68,2.0,288.1,-9999.0,'1111122,1111122,1111122' 
DISL,ioos:station:DISL:DISL:1,2015-05-01T08:30:00Z,30.2513,-88.0778,9.68,3.03,294.7,-9999.0,'1111122,1111122,1111122' 
DISL,ioos:station:DISL:DISL:1,2015-05-01T09:00:00Z,30.2513,-88.0778,9.68,3.34,298.2,-9999.0,'1111122,1111122,1111122' 
DISL,ioos:station:DISL:DISL:1,2015-05-01T09:30:00Z,30.2513,-88.0778,9.68,3.74,298.7,-9999.0,'1111122,1111122,1111122' 
DISL,ioos:station:DISL:DISL:1,2015-05-01T10:00:00Z,30.2513,-88.0778,9.68,4.59,305.8,-9999.0,'1111122,1111122,1111122' 
DISL,ioos:station:DISL:DISL:1,2015-05-01T10:30:00Z,30.2513,-88.0778,9.68,3.43,311.9,-9999.0,'1111122,1111122,1111122' 
DISL,ioos:station:DISL:DISL:1,2015-05-01T11:00:00Z,30.2513,-88.0778,9.68,3.5,323.5,-9999.0,'1111122,1111122,1111122' 
DISL,ioos:station:DISL:DISL:1,2015-05-01T11:30:00Z,30.2513,-88.0778,9.68,5.94,352.0,-9999.0,'1111122,1111122,1111122' 
DISL,ioos:station:DISL:DISL:1,2015-05-01T12:00:00Z,30.2513,-88.0778,9.68,7.61,1.244,-9999.0,'1111122,1111122,1111122' 
DISL,ioos:station:DISL:DISL:1,2015-05-01T12:30:00Z,30.2513,-88.0778,9.68,7.67,10.83,-9999.0,'1111122,1111122,1111122' 
DISL,ioos:station:DISL:DISL:1,2015-05-01T13:00:00Z,30.2513,-88.0778,9.68,7.41,18.02,-9999.0,'1111122,1111122,1111122' 
DISL,ioos:station:DISL:DISL:1,2015-05-01T13:30:00Z,30.2513,-88.0778,9.68,6.51,25.62,-9999.0,'1111122,1111122,1111122' 
DISL,ioos:station:DISL:DISL:1,2015-05-01T14:00:00Z,30.2513,-88.0778,9.68,5.89,34.99,-9999.0,'1111122,1111122,1111122' 
DISL,ioos:station:DISL:DISL:1,2015-05-01T14:30:00Z,30.2513,-88.0778,9.68,5.45,25.18,-9999.0,'1111122,1111122,1111122' 
DISL,ioos:station:DISL:DISL:1,2015-05-01T15:00:00Z,30.2513,-88.0778,9.68,5.89,28.89,-9999.0,'1111122,1111122,1111122' 
DISL,ioos:station:DISL:DISL:1,2015-05-01T15:30:00Z,30.2513,-88.0778,9.68,5.87,20.9,-9999.0,'1111122,1111122,1111122' 
DISL,ioos:station:DISL:DISL:1,2015-05-01T16:00:00Z,30.2513,-88.0778,9.68,5.67,17.39,-9999.0,'1111122,1111122,1111122' 
DISL,ioos:station:DISL:DISL:1,2015-05-01T16:30:00Z,30.2513,-88.0778,9.68,5.53,6.837,-9999.0,'1111122,1111122,1111122' 
DISL,ioos:station:DISL:DISL:1,2015-05-01T17:00:00Z,30.2513,-88.0778,9.68,4.54,2.714,-9999.0,'1111122,1111122,1111122' 
DISL,ioos:station:DISL:DISL:1,2015-05-01T17:30:00Z,30.2513,-88.0778,9.68,3.76,349.2,-9999.0,'1111122,1111122,1111122' 
DISL,ioos:station:DISL:DISL:1,2015-05-01T18:00:00Z,30.2513,-88.0778,9.68,3.05,339.5,-9999.0,'1111122,1111122,1111122' 
DISL,ioos:station:DISL:DISL:1,2015-05-01T18:30:00Z,30.2513,-88.0778,9.68,2.51,21.46,-9999.0,'1111122,1111122,1111122' 
DISL,ioos:station:DISL:DISL:1,2015-05-01T19:00:00Z,30.2513,-88.0778,9.68,0.0,0.0,-9999.0,'1114422,1114422,1111122' 
DISL,ioos:station:DISL:DISL:1,2015-05-01T19:30:00Z,30.2513,-88.0778,9.68,0.81,40.56,-9999.0,'1111122,1111122,1111122' 
DISL,ioos:station:DISL:DISL:1,2015-05-01T20:00:00Z,30.2513,-88.0778,9.68,1.05,34.9,-9999.0,'1111122,1111122,1111122' 
DISL,ioos:station:DISL:DISL:1,2015-05-01T20:30:00Z,30.2513,-88.0778,9.68,0.29,43.58,-9999.0,'1111122,1111122,1111122' 
DISL,ioos:station:DISL:DISL:1,2015-05-01T21:00:00Z,30.2513,-88.0778,9.68,0.0,0.0,-9999.0,'1114422,1114422,1111122' 
DISL,ioos:station:DISL:DISL:1,2015-05-01T21:30:00Z,30.2513,-88.0778,9.68,1.3,198.6,-9999.0,'1111122,1111122,1111122' 
DISL,ioos:station:DISL:DISL:1,2015-05-01T22:00:00Z,30.2513,-88.0778,9.68,1.78,226.4,-9999.0,'1111122,1111122,1111122' 
DISL,ioos:station:DISL:DISL:1,2015-05-01T22:30:00Z,30.2513,-88.0778,9.68,1.76,233.8,-9999.0,'1111122,1111122,1111122' 
DISL,ioos:station:DISL:DISL:1,2015-05-01T23:00:00Z,30.2513,-88.0778,9.68,1.09,208.4,-9999.0,'1111122,1111122,1111122' 
DISL,ioos:station:DISL:DISL:1,2015-05-01T23:30:00Z,30.2513,-88.0778,9.68,0.05,232.2,-9999.0,'1111122,1111122,1111122' 
DISL,ioos:station:DISL:DISL:1,2015-05-02T00:00:00Z,30.2513,-88.0778,9.68,0.05,217.6,-9999.0,'1111122,1111122,1111122' 
DISL,ioos:station:DISL:DISL:1,2015-05-02T00:30:00Z,30.2513,-88.0778,9.68,0.0,0.0,-9999.0,'1114422,1114422,1111122' 
DISL,ioos:station:DISL:DISL:1,2015-05-02T01:00:00Z,30.2513,-88.0778,9.68,0.0,0.0,-9999.0,'1114422,1114422,1111122' 
DISL,ioos:station:DISL:DISL:1,2015-05-02T01:30:00Z,30.2513,-88.0778,9.68,0.0,0.0,-9999.0,'1114422,1114422,1111122' 
DISL,ioos:station:DISL:DISL:1,2015-05-02T02:00:00Z,30.2513,-88.0778,9.68,2.89,21.85,-9999.0,'1111122,1111122,1111122' 
DISL,ioos:station:DISL:DISL:1,2015-05-02T02:30:00Z,30.2513,-88.0778,9.68,3.66,28.89,-9999.0,'1111122,1111122,1111122' 
DISL,ioos:station:DISL:DISL:1,2015-05-02T03:00:00Z,30.2513,-88.0778,9.68,5.61,33.4,-9999.0,'1111122,1111122,1111122' 
DISL,ioos:station:DISL:DISL:1,2015-05-02T03:30:00Z,30.2513,-88.0778,9.68,6.79,41.86,-9999.0,'1111122,1111122,1111122' 
DISL,ioos:station:DISL:DISL:1,2015-05-02T04:00:00Z,30.2513,-88.0778,9.68,6.95,43.91,-9999.0,'1111122,1111122,1111122' 
DISL,ioos:station:DISL:DISL:1,2015-05-02T04:30:00Z,30.2513,-88.0778,9.68,7.52,41.56,-9999.0,'1111122,1111122,1111122' 
DISL,ioos:station:DISL:DISL:1,2015-05-02T05:00:00Z,30.2513,-88.0778,9.68,7.26,47.84,-9999.0,'1111122,1111122,1111122' 
DISL,ioos:station:DISL:DISL:1,2015-05-02T05:30:00Z,30.2513,-88.0778,9.68,6.11,43.9,-9999.0,'1111122,1111122,1111122' 
DISL,ioos:station:DISL:DISL:1,2015-05-02T06:00:00Z,30.2513,-88.0778,9.68,6.5,44.06,-9999.0,'1111122,1111122,1111122' 
DISL,ioos:station:DISL:DISL:1,2015-05-02T06:30:00Z,30.2513,-88.0778,9.68,5.43,48.32,-9999.0,'1111122,1111122,1111122' 
DISL,ioos:station:DISL:DISL:1,2015-05-02T07:00:00Z,30.2513,-88.0778,9.68,5.41,46.74,-9999.0,'1111122,1111122,1111122' 
DISL,ioos:station:DISL:DISL:1,2015-05-02T07:30:00Z,30.2513,-88.0778,9.68,5.29,43.15,-9999.0,'1111122,1111122,1111122' 
DISL,ioos:station:DISL:DISL:1,2015-05-02T08:00:00Z,30.2513,-88.0778,9.68,5.77,39.36,-9999.0,'1111122,1111122,1111122' 
DISL,ioos:station:DISL:DISL:1,2015-05-02T08:30:00Z,30.2513,-88.0778,9.68,5.54,35.76,-9999.0,'1111122,1111122,1111122' 
DISL,ioos:station:DISL:DISL:1,2015-05-02T09:00:00Z,30.2513,-88.0778,9.68,5.21,40.89,-9999.0,'1111122,1111122,1111122' 
DISL,ioos:station:DISL:DISL:1,2015-05-02T09:30:00Z,30.2513,-88.0778,9.68,5.28,46.8,-9999.0,'1111122,1111122,1111122' 
DISL,ioos:station:DISL:DISL:1,2015-05-02T10:00:00Z,30.2513,-88.0778,9.68,4.74,49.4,-9999.0,'1111122,1111122,1111122' 
DISL,ioos:station:DISL:DISL:1,2015-05-02T10:30:00Z,30.2513,-88.0778,9.68,4.06,62.83,-9999.0,'1111122,1111122,1111122' 
DISL,ioos:station:DISL:DISL:1,2015-05-02T11:00:00Z,30.2513,-88.0778,9.68,4.29,58.29,-9999.0,'1111122,1111122,1111122' 
DISL,ioos:station:DISL:DISL:1,2015-05-02T11:30:00Z,30.2513,-88.0778,9.68,4.38,65.28,-9999.0,'1111122,1111122,1111122' 
DISL,ioos:station:DISL:DISL:1,2015-05-02T12:00:00Z,30.2513,-88.0778,9.68,4.3,63.99,-9999.0,'1111122,1111122,1111122' 
DISL,ioos:station:DISL:DISL:1,2015-05-02T12:30:00Z,30.2513,-88.0778,9.68,3.98,73.05,-9999.0,'1111122,1111122,1111122' 
DISL,ioos:station:DISL:DISL:1,2015-05-02T13:00:00Z,30.2513,-88.0778,9.68,3.83,69.54,-9999.0,'1111122,1111122,1111122' 
DISL,ioos:station:DISL:DISL:1,2015-05-02T13:30:00Z,30.2513,-88.0778,9.68,3.67,71.21,-9999.0,'1111122,1111122,1111122' 
DISL,ioos:station:DISL:DISL:1,2015-05-02T14:00:00Z,30.2513,-88.0778,9.68,3.46,61.53,-9999.0,'1111122,1111122,1111122' 
DISL,ioos:station:DISL:DISL:1,2015-05-02T14:30:00Z,30.2513,-88.0778,9.68,3.77,69.28,-9999.0,'1111122,1111122,1111122' 
DISL,ioos:station:DISL:DISL:1,2015-05-02T15:00:00Z,30.2513,-88.0778,9.68,3.32,54.68,-9999.0,'1111122,1111122,1111122' 
DISL,ioos:station:DISL:DISL:1,2015-05-02T15:30:00Z,30.2513,-88.0778,9.68,2.59,49.07,-9999.0,'1111122,1111122,1111122' 
DISL,ioos:station:DISL:DISL:1,2015-05-02T16:00:00Z,30.2513,-88.0778,9.68,2.06,46.58,-9999.0,'1111122,1111122,1111122' 
DISL,ioos:station:DISL:DISL:1,2015-05-02T16:30:00Z,30.2513,-88.0778,9.68,0.1,39.69,-9999.0,'1111122,1111122,1111122' 
DISL,ioos:station:DISL:DISL:1,2015-05-02T17:00:00Z,30.2513,-88.0778,9.68,0.0,0.0,-9999.0,'1114422,1114422,1111122' 
DISL,ioos:station:DISL:DISL:1,2015-05-02T17:30:00Z,30.2513,-88.0778,9.68,0.0,0.0,-9999.0,'1114422,1114422,1111122' 
DISL,ioos:station:DISL:DISL:1,2015-05-02T18:00:00Z,30.2513,-88.0778,9.68,0.1,94.4,-9999.0,'1111122,1111122,1111122' 
DISL,ioos:station:DISL:DISL:1,2015-05-02T18:30:00Z,30.2513,-88.0778,9.68,0.93,149.0,-9999.0,'1111122,1111122,1111122' 
DISL,ioos:station:DISL:DISL:1,2015-05-02T19:00:00Z,30.2513,-88.0778,9.68,0.78,162.2,-9999.0,'1111122,1111122,1111122' 
DISL,ioos:station:DISL:DISL:1,2015-05-02T19:30:00Z,30.2513,-88.0778,9.68,1.29,158.6,-9999.0,'1111122,1111122,1111122' 
DISL,ioos:station:DISL:DISL:1,2015-05-02T20:00:00Z,30.2513,-88.0778,9.68,1.93,153.9,-9999.0,'1111122,1111122,1111122' 
DISL,ioos:station:DISL:DISL:1,2015-05-02T20:30:00Z,30.2513,-88.0778,9.68,1.55,153.9,-9999.0,'1111122,1111122,1111122' 
DISL,ioos:station:DISL:DISL:1,2015-05-02T21:00:00Z,30.2513,-88.0778,9.68,2.0,166.1,-9999.0,'1111122,1111122,1111122' 
DISL,ioos:station:DISL:DISL:1,2015-05-02T21:30:00Z,30.2513,-88.0778,9.68,1.72,169.9,-9999.0,'1111122,1111122,1111122' 
DISL,ioos:station:DISL:DISL:1,2015-05-02T22:00:00Z,30.2513,-88.0778,9.68,1.61,152.2,-9999.0,'1111122,1111122,1111122' 
DISL,ioos:station:DISL:DISL:1,2015-05-02T22:30:00Z,30.2513,-88.0778,9.68,1.9,157.0,-9999.0,'1111122,1111122,1111122' 
DISL,ioos:station:DISL:DISL:1,2015-05-02T23:00:00Z,30.2513,-88.0778,9.68,1.9,152.8,-9999.0,'1111122,1111122,1111122' 
DISL,ioos:station:DISL:DISL:1,2015-05-02T23:30:00Z,30.2513,-88.0778,9.68,1.88,163.8,-9999.0,'1111122,1111122,1111122' 
DISL,ioos:station:DISL:DISL:1,2015-05-03T00:00:00Z,30.2513,-88.0778,9.68,2.17,164.9,-9999.0,'1111122,1111122,1111122' 
DISL,ioos:station:DISL:DISL:1,2015-05-03T00:30:00Z,30.2513,-88.0778,9.68,1.48,164.2,-9999.0,'1111122,1111122,1111122' 
DISL,ioos:station:DISL:DISL:1,2015-05-03T01:00:00Z,30.2513,-88.0778,9.68,2.02,154.7,-9999.0,'1111122,1111122,1111122' 
DISL,ioos:station:DISL:DISL:1,2015-05-03T01:30:00Z,30.2513,-88.0778,9.68,1.41,157.3,-9999.0,'1111122,1111122,1111122' 
DISL,ioos:station:DISL:DISL:1,2015-05-03T02:00:00Z,30.2513,-88.0778,9.68,2.48,157.0,-9999.0,'1111122,1111122,1111122' 
DISL,ioos:station:DISL:DISL:1,2015-05-03T02:30:00Z,30.2513,-88.0778,9.68,1.51,161.7,-9999.0,'1111122,1111122,1111122' 
DISL,ioos:station:DISL:DISL:1,2015-05-03T03:00:00Z,30.2513,-88.0778,9.68,1.71,171.9,-9999.0,'1111122,1111122,1111122' 
DISL,ioos:station:DISL:DISL:1,2015-05-03T03:30:00Z,30.2513,-88.0778,9.68,1.58,178.9,-9999.0,'1111122,1111122,1111122' 
DISL,ioos:station:DISL:DISL:1,2015-05-03T04:00:00Z,30.2513,-88.0778,9.68,1.36,173.7,-9999.0,'1111122,1111122,1111122' 
DISL,ioos:station:DISL:DISL:1,2015-05-03T04:30:00Z,30.2513,-88.0778,9.68,0.28,190.1,-9999.0,'1111122,1111122,1111122' 
DISL,ioos:station:DISL:DISL:1,2015-05-03T05:00:00Z,30.2513,-88.0778,9.68,0.42,178.1,-9999.0,'1111122,1111122,1111122' 
DISL,ioos:station:DISL:DISL:1,2015-05-03T05:30:00Z,30.2513,-88.0778,9.68,0.1,175.2,-9999.0,'1111122,1111122,1111122' 
DISL,ioos:station:DISL:DISL:1,2015-05-03T06:00:00Z,30.2513,-88.0778,9.68,0.11,171.1,-9999.0,'1111122,1111122,1111122' 
DISL,ioos:station:DISL:DISL:1,2015-05-03T06:30:00Z,30.2513,-88.0778,9.68,0.19,172.9,-9999.0,'1111122,1111122,1111122' 
DISL,ioos:station:DISL:DISL:1,2015-05-03T07:00:00Z,30.2513,-88.0778,9.68,0.0,0.0,-9999.0,'1114422,1114422,1111122' 
DISL,ioos:station:DISL:DISL:1,2015-05-03T07:30:00Z,30.2513,-88.0778,9.68,0.0,0.0,-9999.0,'1114422,1114422,1111122' 
DISL,ioos:station:DISL:DISL:1,2015-05-03T08:00:00Z,30.2513,-88.0778,9.68,0.0,0.0,-9999.0,'1114422,1114422,1111122' 
DISL,ioos:station:DISL:DISL:1,2015-05-03T08:30:00Z,30.2513,-88.0778,9.68,0.0,0.0,-9999.0,'1114422,1114422,1111122' 
DISL,ioos:station:DISL:DISL:1,2015-05-03T09:00:00Z,30.2513,-88.0778,9.68,0.0,0.0,-9999.0,'1114422,1114422,1111122' 
DISL,ioos:station:DISL:DISL:1,2015-05-03T09:30:00Z,30.2513,-88.0778,9.68,0.0,0.0,-9999.0,'1114422,1114422,1111122' 
DISL,ioos:station:DISL:DISL:1,2015-05-03T10:00:00Z,30.2513,-88.0778,9.68,0.0,0.0,-9999.0,'1114422,1114422,1111122' 
DISL,ioos:station:DISL:DISL:1,2015-05-03T10:30:00Z,30.2513,-88.0778,9.68,0.0,0.0,-9999.0,'1114422,1114422,1111122' 
DISL,ioos:station:DISL:DISL:1,2015-05-03T11:00:00Z,30.2513,-88.0778,9.68,0.0,0.0,-9999.0,'1114422,1114422,1111122' 
DISL,ioos:station:DISL:DISL:1,2015-05-03T11:30:00Z,30.2513,-88.0778,9.68,0.0,0.0,-9999.0,'1114422,1114422,1111122' 
DISL,ioos:station:DISL:DISL:1,2015-05-03T12:00:00Z,30.2513,-88.0778,9.68,1.43,56.8,-9999.0,'1111122,1111122,1111122' 
DISL,ioos:station:DISL:DISL:1,2015-05-03T12:30:00Z,30.2513,-88.0778,9.68,2.18,60.4,-9999.0,'1111122,1111122,1111122' 
DISL,ioos:station:DISL:DISL:1,2015-05-03T13:00:00Z,30.2513,-88.0778,9.68,2.31,51.74,-9999.0,'1111122,1111122,1111122' 
DISL,ioos:station:DISL:DISL:1,2015-05-03T13:30:00Z,30.2513,-88.0778,9.68,2.48,60.28,-9999.0,'1111122,1111122,1111122' 
DISL,ioos:station:DISL:DISL:1,2015-05-03T14:00:00Z,30.2513,-88.0778,9.68,2.59,83.9,-9999.0,'1111122,1111122,1111122' 
DISL,ioos:station:DISL:DISL:1,2015-05-03T14:30:00Z,30.2513,-88.0778,9.68,3.14,84.1,-9999.0,'1111122,1111122,1111122' 
DISL,ioos:station:DISL:DISL:1,2015-05-03T15:00:00Z,30.2513,-88.0778,9.68,2.8,85.6,-9999.0,'1111122,1111122,1111122' 
DISL,ioos:station:DISL:DISL:1,2015-05-03T15:30:00Z,30.2513,-88.0778,9.68,2.84,116.4,-9999.0,'1111122,1111122,1111122' 
DISL,ioos:station:DISL:DISL:1,2015-05-03T16:00:00Z,30.2513,-88.0778,9.68,3.54,113.3,-9999.0,'1111122,1111122,1111122' 
DISL,ioos:station:DISL:DISL:1,2015-05-03T16:30:00Z,30.2513,-88.0778,9.68,3.62,115.5,-9999.0,'1111122,1111122,1111122' 
DISL,ioos:station:DISL:DISL:1,2015-05-03T17:00:00Z,30.2513,-88.0778,9.68,3.46,114.5,-9999.0,'1111122,1111122,1111122' 
DISL,ioos:station:DISL:DISL:1,2015-05-03T17:30:00Z,30.2513,-88.0778,9.68,3.96,117.6,-9999.0,'1111122,1111122,1111122' 
DISL,ioos:station:DISL:DISL:1,2015-05-03T18:00:00Z,30.2513,-88.0778,9.68,3.92,142.2,-9999.0,'1111122,1111122,1111122' 
DISL,ioos:station:DISL:DISL:1,2015-05-03T18:30:00Z,30.2513,-88.0778,9.68,3.58,138.0,-9999.0,'1111122,1111122,1111122' 
DISL,ioos:station:DISL:DISL:1,2015-05-03T19:00:00Z,30.2513,-88.0778,9.68,3.32,122.0,-9999.0,'1111122,1111122,1111122' 
DISL,ioos:station:DISL:DISL:1,2015-05-03T19:30:00Z,30.2513,-88.0778,9.68,3.18,116.9,-9999.0,'1111122,1111122,1111122' 
DISL,ioos:station:DISL:DISL:1,2015-05-03T20:00:00Z,30.2513,-88.0778,9.68,3.12,114.8,-9999.0,'1111122,1111122,1111122' 
DISL,ioos:station:DISL:DISL:1,2015-05-03T20:30:00Z,30.2513,-88.0778,9.68,3.23,114.1,-9999.0,'1111122,1111122,1111122' 
DISL,ioos:station:DISL:DISL:1,2015-05-03T21:00:00Z,30.2513,-88.0778,9.68,2.47,106.6,-9999.0,'1111122,1111122,1111122' 
DISL,ioos:station:DISL:DISL:1,2015-05-03T21:30:00Z,30.2513,-88.0778,9.68,2.85,117.0,-9999.0,'1111122,1111122,1111122' 
DISL,ioos:station:DISL:DISL:1,2015-05-03T22:00:00Z,30.2513,-88.0778,9.68,2.85,120.8,-9999.0,'1111122,1111122,1111122' 
DISL,ioos:station:DISL:DISL:1,2015-05-03T22:30:00Z,30.2513,-88.0778,9.68,2.18,116.2,-9999.0,'1111122,1111122,1111122' 
DISL,ioos:station:DISL:DISL:1,2015-05-03T23:00:00Z,30.2513,-88.0778,9.68,2.75,116.0,-9999.0,'1111122,1111122,1111122' 
DISL,ioos:station:DISL:DISL:1,2015-05-03T23:30:00Z,30.2513,-88.0778,9.68,3.22,119.3,-9999.0,'1111122,1111122,1111122' 
DISL,ioos:station:DISL:DISL:1,2015-05-04T00:00:00Z,30.2513,-88.0778,9.68,2.51,124.3,-9999.0,'1111122,1111122,1111122' 
DISL,ioos:station:DISL:DISL:1,2015-05-04T00:30:00Z,30.2513,-88.0778,9.68,2.65,117.6,-9999.0,'1111122,1111122,1111122' 
DISL,ioos:station:DISL:DISL:1,2015-05-04T01:00:00Z,30.2513,-88.0778,9.68,3.11,123.8,-9999.0,'1111122,1111122,1111122' 
DISL,ioos:station:DISL:DISL:1,2015-05-04T01:30:00Z,30.2513,-88.0778,9.68,2.84,113.4,-9999.0,'1111122,1111122,1111122' 
DISL,ioos:station:DISL:DISL:1,2015-05-04T02:00:00Z,30.2513,-88.0778,9.68,3.48,109.5,-9999.0,'1111122,1111122,1111122' 
DISL,ioos:station:DISL:DISL:1,2015-05-04T02:30:00Z,30.2513,-88.0778,9.68,3.27,145.2,-9999.0,'1111122,1111122,1111122' 
DISL,ioos:station:DISL:DISL:1,2015-05-04T03:00:00Z,30.2513,-88.0778,9.68,5.33,123.4,-9999.0,'1111122,1111122,1111122' 
DISL,ioos:station:DISL:DISL:1,2015-05-04T03:30:00Z,30.2513,-88.0778,9.68,6.22,129.9,-9999.0,'1111122,1111122,1111122' 
DISL,ioos:station:DISL:DISL:1,2015-05-04T04:00:00Z,30.2513,-88.0778,9.68,5.09,132.2,-9999.0,'1111122,1111122,1111122' 
DISL,ioos:station:DISL:DISL:1,2015-05-04T04:30:00Z,30.2513,-88.0778,9.68,5.87,138.4,-9999.0,'1111122,1111122,1111122' 
DISL,ioos:station:DISL:DISL:1,2015-05-04T05:00:00Z,30.2513,-88.0778,9.68,5.54,134.5,-9999.0,'1111122,1111122,1111122' 
DISL,ioos:station:DISL:DISL:1,2015-05-04T05:30:00Z,30.2513,-88.0778,9.68,5.53,135.3,-9999.0,'1111122,1111122,1111122' 
DISL,ioos:station:DISL:DISL:1,2015-05-04T06:00:00Z,30.2513,-88.0778,9.68,5.27,136.8,-9999.0,'1111122,1111122,1111122' 
DISL,ioos:station:DISL:DISL:1,2015-05-04T06:30:00Z,30.2513,-88.0778,9.68,4.1,134.3,-9999.0,'1111122,1111122,1111122' 
DISL,ioos:station:DISL:DISL:1,2015-05-04T07:00:00Z,30.2513,-88.0778,9.68,3.84,140.5,-9999.0,'1111122,1111122,1111122' 
DISL,ioos:station:DISL:DISL:1,2015-05-04T07:30:00Z,30.2513,-88.0778,9.68,3.48,143.7,-9999.0,'1111122,1111122,1111122' 
DISL,ioos:station:DISL:DISL:1,2015-05-04T08:00:00Z,30.2513,-88.0778,9.68,2.83,141.1,-9999.0,'1111122,1111122,1111122' 
DISL,ioos:station:DISL:DISL:1,2015-05-04T08:30:00Z,30.2513,-88.0778,9.68,3.34,126.9,-9999.0,'1111122,1111122,1111122' 
DISL,ioos:station:DISL:DISL:1,2015-05-04T09:00:00Z,30.2513,-88.0778,9.68,3.5,120.5,-9999.0,'1111122,1111122,1111122' 
DISL,ioos:station:DISL:DISL:1,2015-05-04T09:30:00Z,30.2513,-88.0778,9.68,4.53,117.0,-9999.0,'1111122,1111122,1111122' 
DISL,ioos:station:DISL:DISL:1,2015-05-04T10:00:00Z,30.2513,-88.0778,9.68,4.83,105.7,-9999.0,'1111122,1111122,1111122' 
DISL,ioos:station:DISL:DISL:1,2015-05-04T10:30:00Z,30.2513,-88.0778,9.68,5.85,102.0,-9999.0,'1111122,1111122,1111122' 
DISL,ioos:station:DISL:DISL:1,2015-05-04T11:00:00Z,30.2513,-88.0778,9.68,5.41,100.5,-9999.0,'1111122,1111122,1111122' 
DISL,ioos:station:DISL:DISL:1,2015-05-04T11:30:00Z,30.2513,-88.0778,9.68,4.59,95.3,-9999.0,'1111122,1111122,1111122' 
DISL,ioos:station:DISL:DISL:1,2015-05-04T12:00:00Z,30.2513,-88.0778,9.68,6.2,104.8,-9999.0,'1111122,1111122,1111122' 
DISL,ioos:station:DISL:DISL:1,2015-05-04T12:30:00Z,30.2513,-88.0778,9.68,7.18,102.4,-9999.0,'1111122,1111122,1111122' 
DISL,ioos:station:DISL:DISL:1,2015-05-04T13:00:00Z,30.2513,-88.0778,9.68,7.71,100.3,-9999.0,'1111122,1111122,1111122' 
DISL,ioos:station:DISL:DISL:1,2015-05-04T13:30:00Z,30.2513,-88.0778,9.68,7.63,105.3,-9999.0,'1111122,1111122,1111122' 
DISL,ioos:station:DISL:DISL:1,2015-05-04T14:00:00Z,30.2513,-88.0778,9.68,7.91,101.6,-9999.0,'1111122,1111122,1111122' 
DISL,ioos:station:DISL:DISL:1,2015-05-04T14:30:00Z,30.2513,-88.0778,9.68,8.07,105.7,-9999.0,'1111122,1111122,1111122' 
DISL,ioos:station:DISL:DISL:1,2015-05-04T15:00:00Z,30.2513,-88.0778,9.68,8.59,104.7,-9999.0,'1111122,1111122,1111122' 
DISL,ioos:station:DISL:DISL:1,2015-05-04T15:30:00Z,30.2513,-88.0778,9.68,8.25,103.6,-9999.0,'1111122,1111122,1111122' 
DISL,ioos:station:DISL:DISL:1,2015-05-04T16:00:00Z,30.2513,-88.0778,9.68,8.4,99.3,-9999.0,'1111122,1111122,1111122' 
DISL,ioos:station:DISL:DISL:1,2015-05-04T16:30:00Z,30.2513,-88.0778,9.68,9.0,98.7,-9999.0,'1111122,1111122,1111122' 
DISL,ioos:station:DISL:DISL:1,2015-05-04T17:00:00Z,30.2513,-88.0778,9.68,8.56,104.7,-9999.0,'1111122,1111122,1111122' 
DISL,ioos:station:DISL:DISL:1,2015-05-04T17:30:00Z,30.2513,-88.0778,9.68,8.31,111.8,-9999.0,'1111122,1111122,1111122' 
DISL,ioos:station:DISL:DISL:1,2015-05-04T18:00:00Z,30.2513,-88.0778,9.68,8.13,105.0,-9999.0,'1111122,1111122,1111122' 
DISL,ioos:station:DISL:DISL:1,2015-05-04T18:30:00Z,30.2513,-88.0778,9.68,7.88,106.3,-9999.0,'1111122,1111122,1111122' 
DISL,ioos:station:DISL:DISL:1,2015-05-04T19:00:00Z,30.2513,-88.0778,9.68,7.23,115.1,-9999.0,'1111122,1111122,1111122' 
DISL,ioos:station:DISL:DISL:1,2015-05-04T19:30:00Z,30.2513,-88.0778,9.68,7.44,112.7,-9999.0,'1111122,1111122,1111122' 
DISL,ioos:station:DISL:DISL:1,2015-05-04T20:00:00Z,30.2513,-88.0778,9.68,7.62,117.7,-9999.0,'1111122,1111122,1111122' 
DISL,ioos:station:DISL:DISL:1,2015-05-04T20:30:00Z,30.2513,-88.0778,9.68,6.56,112.7,-9999.0,'1111122,1111122,1111122' 
DISL,ioos:station:DISL:DISL:1,2015-05-04T21:00:00Z,30.2513,-88.0778,9.68,5.66,119.7,-9999.0,'1111122,1111122,1111122' 
DISL,ioos:station:DISL:DISL:1,2015-05-04T21:30:00Z,30.2513,-88.0778,9.68,5.99,123.5,-9999.0,'1111122,1111122,1111122' 
DISL,ioos:station:DISL:DISL:1,2015-05-04T22:00:00Z,30.2513,-88.0778,9.68,5.75,128.4,-9999.0,'1111122,1111122,1111122' 
DISL,ioos:station:DISL:DISL:1,2015-05-04T22:30:00Z,30.2513,-88.0778,9.68,4.92,139.3,-9999.0,'1111122,1111122,1111122' 
DISL,ioos:station:DISL:DISL:1,2015-05-04T23:00:00Z,30.2513,-88.0778,9.68,4.21,136.0,-9999.0,'1111122,1111122,1111122' 
DISL,ioos:station:DISL:DISL:1,2015-05-04T23:30:00Z,30.2513,-88.0778,9.68,3.9,148.8,-9999.0,'1111122,1111122,1111122' 
DISL,ioos:station:DISL:DISL:1,2015-05-05T00:00:00Z,30.2513,-88.0778,9.68,3.67,144.9,-9999.0,'1111122,1111122,1111122' 
DISL,ioos:station:DISL:DISL:1,2015-05-05T00:30:00Z,30.2513,-88.0778,9.68,4.86,131.2,-9999.0,'1111122,1111122,1111122' 
DISL,ioos:station:DISL:DISL:1,2015-05-05T01:00:00Z,30.2513,-88.0778,9.68,5.76,129.4,-9999.0,'1111122,1111122,1111122' 
DISL,ioos:station:DISL:DISL:1,2015-05-05T01:30:00Z,30.2513,-88.0778,9.68,4.84,127.4,-9999.0,'1111122,1111122,1111122' 
DISL,ioos:station:DISL:DISL:1,2015-05-05T02:00:00Z,30.2513,-88.0778,9.68,6.04,122.1,-9999.0,'1111122,1111122,1111122' 
DISL,ioos:station:DISL:DISL:1,2015-05-05T02:30:00Z,30.2513,-88.0778,9.68,5.7,126.5,-9999.0,'1111122,1111122,1111122' 
DISL,ioos:station:DISL:DISL:1,2015-05-05T03:00:00Z,30.2513,-88.0778,9.68,5.24,120.3,-9999.0,'1111122,1111122,1111122' 
DISL,ioos:station:DISL:DISL:1,2015-05-05T03:30:00Z,30.2513,-88.0778,9.68,5.73,123.1,-9999.0,'1111122,1111122,1111122' 
DISL,ioos:station:DISL:DISL:1,2015-05-05T04:00:00Z,30.2513,-88.0778,9.68,5.41,118.5,-9999.0,'1111122,1111122,1111122' 